Regional Weather Roundup
Issued by NWS

Home | Current Version | Previous Version | Text Only | Print | Product List | Glossary On
Versions: 1 2 3 4 5 6 7 8 9 10 11 12 13 14 15 16 17 18 19 20 21 22 23 24 25 26 27 28 29 30 31 32 33 34 35 36 37 38 39 40 41 42 43 44 45 46 47 48 49 50
000
ASUS42 KKEY 311810
RWRKEY

FLORIDA REGIONAL WEATHER ROUNDUP FOR THE FLORIDA KEYS
NATIONAL WEATHER SERVICE KEY WEST FLORIDA
200 PM EDT MON AUG 31 2015

...SOUTH FLORIDA AND THE KEYS...

CITY           SKY/WX    TMP DP  RH WIND       PRES   REMARKS
FORT MYERS     LGT RAIN  79  75  87 S5        30.03F
SW REGIONAL AP CLOUDY    80  74  81 S6        30.04F
NAPLES         CLOUDY    80  76  87 S8        30.04F
MIAMI          PTSUNNY   90  77  65 SE14      30.05F HX 103
WEST KENDALL   MOSUNNY   90  77  65 S10G20      N/A  HX 103
HOMESTEAD      MOSUNNY   90  77  66 SE10      30.04F HX 102
MARATHON       SUNNY     91  77  63 S8        30.05S HX 104
BOCA CHICA NAS PTSUNNY   90  74  59 S10       30.05S HX  99
KEY WEST INTL  MOSUNNY   88  76  67 S12       30.05S HX  99

...INTERNATIONAL WEATHER...

CITY           SKY/WX    TMP DP  RH WIND       PRES   REMARKS
NASSAU BAHAMAS MOSUNNY   90  77  66 S9        30.07F HX 102
CANCUN MEXICO  CLOUDY    82  77  83 SE14      30.02F HX  91
COZUMEL MEXICO CLOUDY    72  72 100 CALM      30.03F

ADJACENT COASTAL WATERS...

STATION/POSITION TIME  SKY/WX   TEMP    WIND        PRES    WAVE
                                AIR SEA DIR/SP/G            HT/PER
                 (UTC)          (F)     (DEG/KT/KT) (MB)    (FT/S)
PULASKI SHOAL LI 1700                                 N/A
SAND KEY         1750            85     180/ 10     1017.6S
SOMBRERO KEY     NOT AVBL
LONG KEY         1700            85 85  190/ 10/ 12 1018.5S
MOLASSES REEF    1800            85 87  170/ 12/ 13 1017.7F
FOWEY ROCKS      NOT AVBL

$$


USA.gov is the U.S. government's official web portal to all federal, state and local government web resources and services.